Hourly Weather Rudeevo

Today, 22 April, Thursday

Time Temperature Precipitation Wind Pressure Humidity
00:00 +2°C° 0 mm 2 mps 739 mmHg 95%
01:00 +2°C° 0 mm 2 mps 740 mmHg 95%
02:00 +2°C° 0 mm 2 mps 740 mmHg 95%
03:00 +2°C° 0.1 mm 2 mps 740 mmHg 95%
04:00 +3°C° 0.1 mm 2 mps 740 mmHg 95%
05:00 +3°C° 0.1 mm 2 mps 740 mmHg 94%
06:00 +3°C° 0.1 mm 3 mps 740 mmHg 91%
07:00 +4°C° 0.1 mm 3 mps 740 mmHg 88%
08:00 +7°C° 0.1 mm 3 mps 740 mmHg 85%
09:00 +7°C° 0 mm 4 mps 741 mmHg 77%
10:00 +10°C° 0 mm 4 mps 741 mmHg 69%
11:00 +12°C° 0 mm 4 mps 741 mmHg 62%
12:00 +12°C° 0.2 mm 4 mps 741 mmHg 56%
13:00 +13°C° 0.2 mm 4 mps 741 mmHg 51%
14:00 +14°C° 0.2 mm 3 mps 742 mmHg 45%
15:00 +14°C° 0 mm 3 mps 742 mmHg 49%
16:00 +13°C° 0 mm 3 mps 742 mmHg 52%
17:00 +13°C° 0 mm 3 mps 742 mmHg 56%
18:00 +11°C° 0 mm 3 mps 742 mmHg 63%
19:00 +9°C° 0 mm 3 mps 742 mmHg 70%
20:00 +8°C° 0 mm 3 mps 742 mmHg 77%
21:00 +8°C° 0 mm 3 mps 742 mmHg 79%
22:00 +7°C° 0 mm 3 mps 742 mmHg 82%
23:00 +7°C° 0 mm 3 mps 741 mmHg 84%

Tomorrow, 23 April, Friday

Time Temperature Precipitation Wind Pressure Humidity
00:00 +7°C° 0 mm 3 mps 741 mmHg 87%
01:00 +5°C° 0 mm 3 mps 741 mmHg 90%
02:00 +5°C° 0 mm 3 mps 741 mmHg 93%
03:00 +5°C° 0 mm 3 mps 741 mmHg 93%
04:00 +5°C° 0 mm 3 mps 740 mmHg 93%
05:00 +5°C° 0 mm 3 mps 740 mmHg 93%
06:00 +5°C° 0.3 mm 3 mps 740 mmHg 92%
07:00 +4°C° 0.3 mm 3 mps 741 mmHg 91%
08:00 +5°C° 0.3 mm 2 mps 741 mmHg 90%
09:00 +5°C° 0.1 mm 3 mps 742 mmHg 82%
10:00 +7°C° 0.1 mm 3 mps 742 mmHg 74%
11:00 +8°C° 0.1 mm 4 mps 742 mmHg 66%
12:00 +8°C° 0.2 mm 4 mps 742 mmHg 65%
13:00 +8°C° 0.2 mm 4 mps 742 mmHg 65%
14:00 +8°C° 0.2 mm 4 mps 742 mmHg 64%
15:00 +9°C° 0.1 mm 3 mps 742 mmHg 63%
16:00 +9°C° 0.1 mm 3 mps 742 mmHg 61%
17:00 +9°C° 0.1 mm 3 mps 742 mmHg 59%
18:00 +8°C° 0 mm 2 mps 742 mmHg 64%
19:00 +6°C° 0 mm 2 mps 742 mmHg 68%
20:00 +6°C° 0 mm 1 mps 743 mmHg 73%
21:00 +6°C° 0 mm 1 mps 742 mmHg 75%
22:00 +5°C° 0 mm 1 mps 742 mmHg 77%
23:00 +5°C° 0 mm 1 mps 742 mmHg 79%

Day after tomorrow, 24 April, Saturday

Time Temperature Precipitation Wind Pressure Humidity
00:00 +5°C° 0 mm 1 mps 742 mmHg 79%
01:00 +4°C° 0 mm 1 mps 741 mmHg 80%
02:00 +4°C° 0 mm 1 mps 741 mmHg 81%
03:00 +4°C° 0 mm 1 mps 741 mmHg 81%
04:00 +4°C° 0 mm 1 mps 741 mmHg 81%
05:00 +4°C° 0 mm 1 mps 740 mmHg 82%
06:00 +4°C° 0 mm 1 mps 740 mmHg 79%
07:00 +4°C° 0 mm 2 mps 740 mmHg 76%
08:00 +4°C° 0 mm 2 mps 740 mmHg 73%
09:00 +4°C° 0.2 mm 2 mps 740 mmHg 73%
10:00 +4°C° 0.2 mm 2 mps 740 mmHg 74%
11:00 +5°C° 0.2 mm 2 mps 740 mmHg 74%
12:00 +5°C° 0.2 mm 2 mps 740 mmHg 66%
13:00 +6°C° 0.2 mm 2 mps 740 mmHg 58%
14:00 +7°C° 0.2 mm 2 mps 739 mmHg 50%
15:00 +7°C° 0.1 mm 2 mps 739 mmHg 52%
16:00 +7°C° 0.1 mm 2 mps 739 mmHg 53%
17:00 +6°C° 0.1 mm 2 mps 739 mmHg 54%
18:00 +5°C° 0.1 mm 2 mps 739 mmHg 61%
19:00 +4°C° 0.1 mm 2 mps 739 mmHg 68%
20:00 +2°C° 0.1 mm 2 mps 740 mmHg 75%
21:00 +2°C° 0 mm 2 mps 739 mmHg 80%
22:00 +1°C° 0 mm 2 mps 739 mmHg 85%
23:00 -1°C° 0 mm 2 mps 739 mmHg 90%

25 April, Sunday

Time Temperature Precipitation Wind Pressure Humidity
00:00 -1°C° 0 mm 2 mps 739 mmHg 91%
01:00 -1°C° 0 mm 2 mps 739 mmHg 92%
02:00 -1°C° 0 mm 2 mps 739 mmHg 93%
03:00 -1°C° 0 mm 2 mps 739 mmHg 90%
04:00 -1°C° 0 mm 2 mps 739 mmHg 87%
05:00 0°C° 0 mm 3 mps 739 mmHg 84%
06:00 +1°C° 0 mm 3 mps 739 mmHg 79%
07:00 +1°C° 0 mm 3 mps 739 mmHg 75%
08:00 +2°C° 0 mm 3 mps 739 mmHg 70%
09:00 +2°C° 0.1 mm 3 mps 739 mmHg 69%
10:00 +2°C° 0.1 mm 3 mps 740 mmHg 67%
11:00 +3°C° 0.1 mm 3 mps 740 mmHg 66%
12:00 +3°C° 0.2 mm 3 mps 740 mmHg 64%
13:00 +4°C° 0.2 mm 3 mps 740 mmHg 61%
14:00 +4°C° 0.2 mm 3 mps 740 mmHg 59%
15:00 +5°C° 0.3 mm 2 mps 740 mmHg 60%
16:00 +5°C° 0.3 mm 2 mps 740 mmHg 61%
17:00 +5°C° 0.3 mm 2 mps 740 mmHg 62%
18:00 +5°C° 0.1 mm 1 mps 740 mmHg 69%
19:00 +4°C° 0.1 mm 1 mps 741 mmHg 77%
20:00 +3°C° 0.1 mm 1 mps 741 mmHg 84%
21:00 +2°C° 0 mm 1 mps 741 mmHg 87%
22:00 -1°C° 0 mm 2 mps 741 mmHg 91%
23:00 -1°C° 0 mm 2 mps 741 mmHg 94%

26 April, Monday

Time Temperature Precipitation Wind Pressure Humidity
00:00 -2°C° 0 mm 2 mps 741 mmHg 95%
01:00 -2°C° 0 mm 2 mps 741 mmHg 95%
02:00 0°C° 0 mm 1 mps 741 mmHg 96%
03:00 0°C° 0 mm 1 mps 741 mmHg 96%
04:00 +1°C° 0 mm 1 mps 742 mmHg 96%
05:00 +1°C° 0 mm 1 mps 742 mmHg 96%
06:00 +1°C° 0 mm 2 mps 742 mmHg 90%
07:00 +2°C° 0 mm 2 mps 742 mmHg 85%
08:00 +3°C° 0 mm 2 mps 742 mmHg 79%
09:00 +3°C° 0.1 mm 2 mps 742 mmHg 77%
10:00 +3°C° 0.1 mm 2 mps 742 mmHg 74%
11:00 +3°C° 0.1 mm 2 mps 742 mmHg 71%
12:00 +4°C° 0 mm 2 mps 742 mmHg 68%
13:00 +4°C° 0 mm 2 mps 742 mmHg 64%
14:00 +5°C° 0 mm 2 mps 742 mmHg 61%
15:00 +5°C° 0.1 mm 2 mps 742 mmHg 61%
16:00 +5°C° 0.1 mm 2 mps 742 mmHg 61%
17:00 +5°C° 0.1 mm 2 mps 742 mmHg 61%
18:00 +4°C° 0 mm 2 mps 742 mmHg 69%
19:00 +2°C° 0 mm 2 mps 742 mmHg 77%
20:00 -1°C° 0 mm 2 mps 742 mmHg 86%
21:00 +1°C° 0 mm 1 mps 742 mmHg 87%
22:00 0°C° 0 mm 1 mps 742 mmHg 88%
23:00 0°C° 0 mm 1 mps 742 mmHg 89%

27 April, Tuesday

Time Temperature Precipitation Wind Pressure Humidity
00:00 0°C° 0 mm 1 mps 742 mmHg 90%
01:00 -1°C° 0 mm 1 mps 742 mmHg 91%
02:00 -1°C° 0 mm 1 mps 741 mmHg 92%
03:00 -1°C° 0 mm 1 mps 741 mmHg 92%
04:00 -1°C° 0 mm 1 mps 741 mmHg 91%
05:00 0°C° 0 mm 1 mps 741 mmHg 90%
06:00 -1°C° 0 mm 2 mps 741 mmHg 80%
07:00 +2°C° 0 mm 2 mps 741 mmHg 71%
08:00 +4°C° 0 mm 2 mps 741 mmHg 61%
09:00 +4°C° 0 mm 3 mps 740 mmHg 57%
10:00 +5°C° 0 mm 3 mps 740 mmHg 53%
11:00 +7°C° 0 mm 3 mps 740 mmHg 49%
12:00 +5°C° 0.1 mm 3 mps 740 mmHg 54%
13:00 +5°C° 0.1 mm 3 mps 740 mmHg 59%
14:00 +5°C° 0.1 mm 4 mps 740 mmHg 65%
15:00 +4°C° 0.2 mm 3 mps 740 mmHg 74%
16:00 +3°C° 0.2 mm 3 mps 740 mmHg 83%
17:00 +2°C° 0.2 mm 3 mps 740 mmHg 92%
18:00 +1°C° 0.1 mm 3 mps 741 mmHg 93%
19:00 +1°C° 0.1 mm 3 mps 741 mmHg 95%
20:00 0°C° 0.1 mm 3 mps 741 mmHg 96%
21:00 0°C° 0 mm 3 mps 741 mmHg 95%
22:00 0°C° 0 mm 3 mps 741 mmHg 94%
23:00 0°C° 0 mm 3 mps 742 mmHg 94%
Show more